Pensacola, FL

1:05 AM CDT on March 26, 2017 (GMT -0500)
Pensacola Regional

Weather History for KPNS - September, 2012

Change the Weather History Date:

Saturday, September 22, 2012

  Actual Average Record
Temperature  
Mean Temperature 81 °F 77 °F  
Max Temperature 90 °F 85 °F 96 °F (1990)
Min Temperature 71 °F 69 °F 49 °F (1983)
Cooling Degree Days 16 12  
Month to date cooling degree days 332 316  
Year to date cooling degree days 2711 2283  
Growing Degree Days 30 (Base 50)    
Moisture  
Dew Point 69 °F    
Average Humidity 67    
Maximum Humidity 93    
Minimum Humidity 41    
Precipitation  
Precipitation 0.00 in 0.21 in 3.52 in (1975)
Month to date precipitation 2.29 4.42  
Year to date precipitation 59.68 49.19  
Sea Level Pressure  
Sea Level Pressure 30.04 in    
Wind  
Wind Speed 5 mph (NW)    
Max Wind Speed 10 mph    
Max Gust Speed 14 mph    
Visibility 9 miles    
Events      
T = Trace of Precipitation, MM = Missing Value Source: NWS Daily Summary

Daily Weather History Graph

Daily Weather History Graph

Search for Another Location

Airport or City:

Trip Planner

Search our weather history database for the weather conditions in past years. The results will help you decide how hot, cold, wet, or windy it might be!

Date:

Astronomy

Sep. 22, 2012 Rise Set
Actual Time 6:37 AM CDT 6:44 PM CDT
Civil Twilight 6:13 AM CDT 7:08 PM CDT
Nautical Twilight 5:45 AM CDT 7:36 PM CDT
Astronomical Twilight 5:17 AM CDT 8:04 PM CDT
Moon 1:30 PM CDT (9/22) No Moon Set
Length of Visible Light 12h 55m
Length of Day
12h 07m
Waxing Crescent, 49% of the Moon is Illuminated
Sep 22
Waxing Crescent
Sep 22
First Quarter
Sep 29
Full
Oct 8
Last Quarter
Oct 15
New

Hourly Weather History & Observations

Time (CDT) Temp. Heat Index Dew Point Humidity Pressure Visibility Wind Dir Wind Speed Gust Speed Precip Events Conditions
12:53 AM 73.9 °F - 69.1 °F 85% 30.01 in 10.0 mi Calm Calm - N/A   Clear
1:53 AM 73.0 °F - 69.1 °F 87% 30.02 in 10.0 mi Calm Calm - 0.01 in   Partly Cloudy
2:53 AM 71.1 °F - 69.1 °F 93% 30.01 in 10.0 mi Calm Calm - N/A   Clear
3:53 AM 71.1 °F - 69.1 °F 93% 30.01 in 8.0 mi North 3.5 mph - N/A   Clear
4:53 AM 71.1 °F - 68.0 °F 90% 30.02 in 7.0 mi North 3.5 mph - N/A   Clear
5:53 AM 71.1 °F - 68.0 °F 90% 30.03 in 5.0 mi North 5.8 mph - 0.01 in   Clear
6:53 AM 71.1 °F - 69.1 °F 93% 30.05 in 5.0 mi North 5.8 mph - 0.03 in   Clear
7:53 AM 73.4 °F - 71.6 °F 94% 30.06 in 6.0 mi North 4.6 mph - N/A   Clear
8:53 AM 78.1 °F - 72.0 °F 81% 30.07 in 9.0 mi NNW 8.1 mph - 0.03 in   Clear
9:53 AM 82.0 °F 85.5 °F 69.1 °F 65% 30.09 in 10.0 mi NNW 8.1 mph - N/A   Clear
10:53 AM 84.0 °F 87.0 °F 68.0 °F 58% 30.09 in 10.0 mi WNW 5.8 mph - 0.01 in   Clear
11:53 AM 86.0 °F 88.2 °F 66.0 °F 51% 30.08 in 10.0 mi North 4.6 mph - N/A   Scattered Clouds
12:53 PM 89.1 °F 91.0 °F 64.9 °F 45% 30.06 in 10.0 mi WNW 5.8 mph - N/A   Partly Cloudy
1:53 PM 89.1 °F 91.0 °F 64.9 °F 45% 30.03 in 10.0 mi Variable 6.9 mph - N/A   Partly Cloudy
2:53 PM 89.6 °F 90.1 °F 62.6 °F 40% 30.01 in 10.0 mi WNW 3.5 mph - N/A   Clear
3:53 PM 86.0 °F 90.7 °F 70.0 °F 59% 30.01 in 10.0 mi South 8.1 mph - N/A   Partly Cloudy
4:53 PM 86.0 °F 91.5 °F 71.1 °F 61% 30.01 in 10.0 mi SSW 6.9 mph - N/A   Clear
5:53 PM 84.0 °F 89.0 °F 71.1 °F 65% 30.01 in 10.0 mi SW 5.8 mph - N/A   Clear
6:53 PM 81.0 °F 84.1 °F 69.1 °F 67% 30.02 in 10.0 mi SW 5.8 mph - 0.01 in   Clear
7:53 PM 79.0 °F - 69.1 °F 72% 30.05 in 10.0 mi SSW 3.5 mph - 0.01 in   Clear
8:53 PM 79.0 °F - 70.0 °F 74% 30.06 in 10.0 mi Calm Calm - N/A   Clear
9:53 PM 78.1 °F - 71.1 °F 79% 30.07 in 10.0 mi WSW 4.6 mph - N/A   Clear
10:53 PM 77.0 °F - 70.0 °F 79% 30.08 in 10.0 mi WNW 4.6 mph - N/A   Clear
11:53 PM 75.9 °F - 70.0 °F 82% 30.09 in 10.0 mi WNW 4.6 mph - 0.01 in   Clear